When you browse on this site, cookies collect data to enhance your experience and personalize the content and advertising you see.
Visit our Privacy Policy to learn more. By continuing to use the site, you agree to this use of cookies and data.
  • In Deutschland
  • Länderverzeichnis
  • Für 7 Tage
  • Wassertemperatur
  • Wetterkarte
  • Widgets
  • user-avatar
    Anmelden

    Stündliche Wetter Kandahar

    Heute, 19 November, Dienstag

    Zeit Temperatur Niederschläge Wind Luftdruck Luftfeuchtigkeit
    00:00 +12°C° 0 mm 1 m/S 677 mmHg 30%
    01:00 +11°C° 0 mm 1 m/S 677 mmHg 31%
    02:00 +10°C° 0 mm 0 m/S 676 mmHg 31%
    03:00 +10°C° 0 mm 0 m/S 676 mmHg 32%
    04:00 +9°C° 0 mm 0 m/S 676 mmHg 32%
    05:00 +10°C° 0 mm 0 m/S 676 mmHg 32%
    06:00 +10°C° 0 mm 0 m/S 677 mmHg 32%
    07:00 +10°C° 0 mm 0 m/S 677 mmHg 31%
    08:00 +12°C° 0 mm 0 m/S 677 mmHg 28%
    09:00 +14°C° 0 mm 0 m/S 677 mmHg 24%
    10:00 +15°C° 0 mm 0 m/S 678 mmHg 21%
    11:00 +18°C° 0 mm 1 m/S 677 mmHg 20%
    12:00 +19°C° 0 mm 1 m/S 677 mmHg 18%
    13:00 +20°C° 0 mm 1 m/S 676 mmHg 17%
    14:00 +20°C° 0 mm 1 m/S 676 mmHg 18%
    15:00 +20°C° 0 mm 1 m/S 676 mmHg 18%
    16:00 +20°C° 0 mm 1 m/S 676 mmHg 18%
    17:00 +19°C° 0 mm 1 m/S 676 mmHg 20%
    18:00 +16°C° 0 mm 1 m/S 676 mmHg 22%
    19:00 +15°C° 0 mm 1 m/S 676 mmHg 24%
    20:00 +14°C° 0 mm 0 m/S 676 mmHg 24%
    21:00 +13°C° 0 mm 0 m/S 675 mmHg 25%
    22:00 +13°C° 0 mm 0 m/S 675 mmHg 26%
    23:00 +12°C° 0 mm 0 m/S 675 mmHg 26%

    Morgen, 20 November, Mittwoch

    Zeit Temperatur Niederschläge Wind Luftdruck Luftfeuchtigkeit
    00:00 +12°C° 0 mm 0 m/S 675 mmHg 26%
    01:00 +12°C° 0 mm 0 m/S 674 mmHg 26%
    02:00 +13°C° 0 mm 1 m/S 674 mmHg 26%
    03:00 +13°C° 0 mm 1 m/S 674 mmHg 25%
    04:00 +13°C° 0 mm 2 m/S 674 mmHg 25%
    05:00 +14°C° 0 mm 2 m/S 674 mmHg 25%
    06:00 +14°C° 0 mm 2 m/S 674 mmHg 25%
    07:00 +14°C° 0 mm 2 m/S 675 mmHg 25%
    08:00 +16°C° 0 mm 2 m/S 675 mmHg 22%
    09:00 +17°C° 0 mm 2 m/S 675 mmHg 20%
    10:00 +19°C° 0 mm 1 m/S 676 mmHg 17%
    11:00 +19°C° 0 mm 2 m/S 675 mmHg 19%
    12:00 +19°C° 0 mm 2 m/S 675 mmHg 20%
    13:00 +19°C° 0 mm 3 m/S 675 mmHg 21%
    14:00 +18°C° 0.1 mm 4 m/S 675 mmHg 33%
    15:00 +15°C° 0.1 mm 6 m/S 674 mmHg 45%
    16:00 +14°C° 0.1 mm 7 m/S 674 mmHg 56%
    17:00 +14°C° 0 mm 7 m/S 675 mmHg 55%
    18:00 +14°C° 0 mm 6 m/S 675 mmHg 54%
    19:00 +14°C° 0 mm 6 m/S 676 mmHg 53%
    20:00 +14°C° 0 mm 5 m/S 675 mmHg 54%
    21:00 +13°C° 0 mm 5 m/S 675 mmHg 55%
    22:00 +13°C° 0 mm 5 m/S 675 mmHg 55%
    23:00 +13°C° 0 mm 5 m/S 674 mmHg 55%

    übermorgen, 21 November, Donnerstag

    Zeit Temperatur Niederschläge Wind Luftdruck Luftfeuchtigkeit
    00:00 +13°C° 0 mm 5 m/S 674 mmHg 54%
    01:00 +13°C° 0 mm 5 m/S 674 mmHg 54%
    02:00 +13°C° 0.5 mm 5 m/S 674 mmHg 59%
    03:00 +12°C° 0.5 mm 5 m/S 674 mmHg 64%
    04:00 +12°C° 0.5 mm 5 m/S 674 mmHg 69%
    05:00 +12°C° 0.8 mm 4 m/S 674 mmHg 74%
    06:00 +11°C° 0.8 mm 4 m/S 674 mmHg 78%
    07:00 +11°C° 0.8 mm 3 m/S 675 mmHg 82%
    08:00 +11°C° 2.3 mm 4 m/S 675 mmHg 82%
    09:00 +10°C° 2.3 mm 6 m/S 675 mmHg 82%
    10:00 +10°C° 2.3 mm 7 m/S 675 mmHg 82%
    11:00 +11°C° 0.5 mm 6 m/S 675 mmHg 76%
    12:00 +13°C° 0.5 mm 5 m/S 675 mmHg 71%
    13:00 +14°C° 0.5 mm 5 m/S 675 mmHg 65%
    14:00 +13°C° 0.4 mm 5 m/S 674 mmHg 68%
    15:00 +13°C° 0.4 mm 5 m/S 674 mmHg 71%
    16:00 +11°C° 0.4 mm 6 m/S 673 mmHg 74%
    17:00 +11°C° 2.4 mm 6 m/S 674 mmHg 79%
    18:00 +10°C° 2.4 mm 5 m/S 674 mmHg 83%
    19:00 +10°C° 2.4 mm 5 m/S 674 mmHg 87%
    20:00 +11°C° 1.1 mm 4 m/S 674 mmHg 87%
    21:00 +11°C° 1.1 mm 3 m/S 674 mmHg 87%
    22:00 +13°C° 1.1 mm 2 m/S 675 mmHg 87%
    23:00 +13°C° 0.9 mm 2 m/S 675 mmHg 86%

    22 November, Freitag

    Zeit Temperatur Niederschläge Wind Luftdruck Luftfeuchtigkeit
    00:00 +13°C° 0.9 mm 2 m/S 675 mmHg 86%
    01:00 +13°C° 0.9 mm 2 m/S 676 mmHg 85%
    02:00 +11°C° 0.1 mm 3 m/S 676 mmHg 80%
    03:00 +11°C° 0.1 mm 3 m/S 676 mmHg 74%
    04:00 +10°C° 0.1 mm 3 m/S 676 mmHg 69%
    05:00 +10°C° 0 mm 3 m/S 676 mmHg 69%
    06:00 +10°C° 0 mm 3 m/S 677 mmHg 69%
    07:00 +9°C° 0 mm 2 m/S 677 mmHg 69%
    08:00 +10°C° 0 mm 2 m/S 678 mmHg 66%
    09:00 +10°C° 0 mm 2 m/S 678 mmHg 63%
    10:00 +12°C° 0 mm 2 m/S 678 mmHg 60%
    11:00 +12°C° 0 mm 2 m/S 678 mmHg 57%
    12:00 +13°C° 0 mm 2 m/S 678 mmHg 54%
    13:00 +14°C° 0 mm 2 m/S 677 mmHg 51%
    14:00 +13°C° 0 mm 2 m/S 677 mmHg 51%
    15:00 +12°C° 0 mm 3 m/S 677 mmHg 52%
    16:00 +12°C° 0 mm 3 m/S 677 mmHg 52%
    17:00 +12°C° 0 mm 3 m/S 677 mmHg 56%
    18:00 +12°C° 0 mm 2 m/S 677 mmHg 59%
    19:00 +10°C° 0 mm 2 m/S 677 mmHg 63%
    20:00 +10°C° 0 mm 2 m/S 677 mmHg 65%
    21:00 +11°C° 0 mm 1 m/S 678 mmHg 66%
    22:00 +10°C° 0 mm 1 m/S 678 mmHg 68%
    23:00 +10°C° 0 mm 1 m/S 678 mmHg 69%

    23 November, Samstag

    Zeit Temperatur Niederschläge Wind Luftdruck Luftfeuchtigkeit
    00:00 +10°C° 0 mm 1 m/S 678 mmHg 70%
    01:00 +10°C° 0 mm 1 m/S 678 mmHg 70%
    02:00 +9°C° 0 mm 1 m/S 678 mmHg 71%
    03:00 +9°C° 0 mm 1 m/S 678 mmHg 72%
    04:00 +9°C° 0 mm 1 m/S 678 mmHg 73%
    05:00 +8°C° 0 mm 0 m/S 678 mmHg 73%
    06:00 +8°C° 0 mm 0 m/S 678 mmHg 72%
    07:00 +8°C° 0 mm 0 m/S 679 mmHg 72%
    08:00 +9°C° 0 mm 0 m/S 679 mmHg 67%
    09:00 +9°C° 0 mm 0 m/S 679 mmHg 62%
    10:00 +10°C° 0 mm 0 m/S 679 mmHg 56%
    11:00 +12°C° 0 mm 1 m/S 679 mmHg 53%
    12:00 +13°C° 0 mm 1 m/S 678 mmHg 50%
    13:00 +13°C° 0 mm 1 m/S 678 mmHg 47%
    14:00 +13°C° 0 mm 1 m/S 678 mmHg 46%
    15:00 +13°C° 0 mm 1 m/S 678 mmHg 46%
    16:00 +13°C° 0 mm 2 m/S 678 mmHg 45%
    17:00 +13°C° 0 mm 2 m/S 678 mmHg 48%
    18:00 +12°C° 0 mm 2 m/S 678 mmHg 51%
    19:00 +12°C° 0 mm 2 m/S 678 mmHg 54%
    20:00 +11°C° 0 mm 1 m/S 678 mmHg 57%
    21:00 +11°C° 0 mm 1 m/S 678 mmHg 60%
    22:00 +10°C° 0 mm 1 m/S 678 mmHg 63%
    23:00 +10°C° 0 mm 1 m/S 678 mmHg 64%

    24 November, Sonntag

    Zeit Temperatur Niederschläge Wind Luftdruck Luftfeuchtigkeit
    00:00 +10°C° 0 mm 1 m/S 678 mmHg 65%
    01:00 +10°C° 0 mm 1 m/S 678 mmHg 66%
    02:00 +9°C° 0 mm 1 m/S 677 mmHg 68%
    03:00 +9°C° 0 mm 1 m/S 677 mmHg 69%
    04:00 +9°C° 0 mm 1 m/S 677 mmHg 70%
    05:00 +8°C° 0 mm 0 m/S 678 mmHg 70%
    06:00 +8°C° 0 mm 0 m/S 678 mmHg 70%
    07:00 +8°C° 0 mm 0 m/S 678 mmHg 70%
    08:00 +9°C° 0 mm 0 m/S 678 mmHg 65%
    09:00 +10°C° 0 mm 0 m/S 678 mmHg 60%
    10:00 +11°C° 0 mm 0 m/S 679 mmHg 55%
    11:00 +12°C° 0 mm 1 m/S 678 mmHg 52%
    12:00 +13°C° 0 mm 1 m/S 678 mmHg 49%
    13:00 +14°C° 0 mm 1 m/S 677 mmHg 45%
    14:00 +14°C° 0 mm 1 m/S 677 mmHg 45%
    15:00 +14°C° 0 mm 1 m/S 677 mmHg 45%
    16:00 +14°C° 0 mm 2 m/S 677 mmHg 44%
    17:00 +14°C° 0 mm 2 m/S 677 mmHg 48%
    18:00 +13°C° 0 mm 2 m/S 677 mmHg 51%
    19:00 +12°C° 0 mm 2 m/S 677 mmHg 54%
    20:00 +12°C° 0 mm 2 m/S 677 mmHg 56%
    21:00 +12°C° 0 mm 1 m/S 677 mmHg 58%
    22:00 +11°C° 0 mm 1 m/S 677 mmHg 60%
    23:00 +11°C° 0 mm 1 m/S 676 mmHg 61%
    Mehr zeigen